When you browse on this site, cookies collect data to enhance your experience and personalize the content and advertising you see.
Visit our Privacy Policy to learn more. By continuing to use the site, you agree to this use of cookies and data.
  • In Switzerland
  • List of Countries
  • For 7 days
  • Water Temperature
  • Satellite Maps
  • Weather Map
  • Weather Widgets
  • user-avatar
    Login

    Hourly Weather Klagenfurt

    Today, 22 May, Wednesday

    Time Temperature Precipitation Wind Pressure Humidity
    00:00 +9°C° 0.2 mm 1 mps 686 mmHg 96%
    01:00 +9°C° 0.2 mm 1 mps 687 mmHg 96%
    02:00 +9°C° 0.2 mm 1 mps 687 mmHg 96%
    03:00 +9°C° 0.2 mm 1 mps 687 mmHg 95%
    04:00 +9°C° 0.2 mm 1 mps 687 mmHg 95%
    05:00 +10°C° 0.1 mm 1 mps 687 mmHg 92%
    06:00 +11°C° 0.1 mm 1 mps 687 mmHg 90%
    07:00 +12°C° 0.1 mm 1 mps 688 mmHg 87%
    08:00 +13°C° 0.2 mm 1 mps 688 mmHg 83%
    09:00 +15°C° 0.2 mm 1 mps 689 mmHg 78%
    10:00 +16°C° 0.2 mm 1 mps 689 mmHg 74%
    11:00 +16°C° 0.6 mm 1 mps 689 mmHg 73%
    12:00 +18°C° 0.6 mm 1 mps 689 mmHg 71%
    13:00 +18°C° 0.6 mm 2 mps 689 mmHg 70%
    14:00 +17°C° 1 mm 2 mps 689 mmHg 73%
    15:00 +16°C° 1 mm 1 mps 689 mmHg 76%
    16:00 +16°C° 1 mm 1 mps 689 mmHg 79%
    17:00 +15°C° 0.8 mm 1 mps 689 mmHg 82%
    18:00 +14°C° 0.8 mm 1 mps 689 mmHg 85%
    19:00 +12°C° 0.8 mm 0 mps 689 mmHg 88%
    20:00 +12°C° 0.2 mm 1 mps 689 mmHg 88%
    21:00 +11°C° 0.2 mm 1 mps 689 mmHg 89%
    22:00 +10°C° 0.2 mm 1 mps 690 mmHg 89%
    23:00 +9°C° 0 mm 1 mps 690 mmHg 89%

    Tomorrow, 23 May, Thursday

    Time Temperature Precipitation Wind Pressure Humidity
    00:00 +9°C° 0 mm 1 mps 690 mmHg 90%
    01:00 +8°C° 0 mm 1 mps 690 mmHg 90%
    02:00 +8°C° 0 mm 1 mps 690 mmHg 90%
    03:00 +8°C° 0 mm 1 mps 690 mmHg 91%
    04:00 +8°C° 0 mm 1 mps 690 mmHg 91%
    05:00 +9°C° 0 mm 1 mps 690 mmHg 87%
    06:00 +10°C° 0 mm 1 mps 690 mmHg 83%
    07:00 +12°C° 0 mm 1 mps 690 mmHg 80%
    08:00 +14°C° 0 mm 1 mps 691 mmHg 68%
    09:00 +18°C° 0 mm 1 mps 692 mmHg 57%
    10:00 +21°C° 0 mm 1 mps 692 mmHg 46%
    11:00 +22°C° 0.1 mm 1 mps 692 mmHg 45%
    12:00 +22°C° 0.1 mm 1 mps 692 mmHg 43%
    13:00 +23°C° 0.1 mm 1 mps 692 mmHg 42%
    14:00 +22°C° 0.3 mm 1 mps 691 mmHg 45%
    15:00 +21°C° 0.3 mm 1 mps 691 mmHg 49%
    16:00 +20°C° 0.3 mm 1 mps 690 mmHg 52%
    17:00 +18°C° 0.3 mm 1 mps 690 mmHg 62%
    18:00 +15°C° 0.3 mm 1 mps 690 mmHg 72%
    19:00 +14°C° 0.3 mm 1 mps 690 mmHg 83%
    20:00 +12°C° 0 mm 1 mps 690 mmHg 85%
    21:00 +10°C° 0 mm 0 mps 690 mmHg 88%
    22:00 +9°C° 0 mm 0 mps 691 mmHg 90%
    23:00 +8°C° 0 mm 0 mps 690 mmHg 91%

    Day after tomorrow, 24 May, Friday

    Time Temperature Precipitation Wind Pressure Humidity
    00:00 +8°C° 0 mm 0 mps 690 mmHg 92%
    01:00 +7°C° 0 mm 0 mps 690 mmHg 92%
    02:00 +7°C° 0 mm 0 mps 690 mmHg 92%
    03:00 +7°C° 0 mm 1 mps 690 mmHg 93%
    04:00 +7°C° 0 mm 1 mps 690 mmHg 93%
    05:00 +9°C° 0 mm 1 mps 690 mmHg 87%
    06:00 +10°C° 0 mm 0 mps 690 mmHg 82%
    07:00 +12°C° 0 mm 0 mps 690 mmHg 76%
    08:00 +14°C° 0 mm 0 mps 691 mmHg 66%
    09:00 +17°C° 0 mm 0 mps 691 mmHg 55%
    10:00 +20°C° 0 mm 0 mps 691 mmHg 45%
    11:00 +21°C° 0.1 mm 0 mps 691 mmHg 44%
    12:00 +23°C° 0.1 mm 1 mps 691 mmHg 42%
    13:00 +24°C° 0.1 mm 1 mps 691 mmHg 41%
    14:00 +23°C° 0.2 mm 1 mps 690 mmHg 45%
    15:00 +22°C° 0.2 mm 1 mps 690 mmHg 48%
    16:00 +21°C° 0.2 mm 1 mps 689 mmHg 51%
    17:00 +19°C° 0.3 mm 1 mps 689 mmHg 61%
    18:00 +18°C° 0.3 mm 1 mps 689 mmHg 71%
    19:00 +14°C° 0.3 mm 0 mps 688 mmHg 81%
    20:00 +13°C° 0.1 mm 0 mps 688 mmHg 85%
    21:00 +11°C° 0.1 mm 0 mps 689 mmHg 89%
    22:00 +10°C° 0.1 mm 0 mps 689 mmHg 92%
    23:00 +10°C° 0 mm 0 mps 689 mmHg 93%

    25 May, Saturday

    Time Temperature Precipitation Wind Pressure Humidity
    00:00 +9°C° 0 mm 0 mps 688 mmHg 93%
    01:00 +9°C° 0 mm 0 mps 688 mmHg 94%
    02:00 +9°C° 0 mm 0 mps 688 mmHg 94%
    03:00 +8°C° 0 mm 0 mps 688 mmHg 94%
    04:00 +9°C° 0 mm 1 mps 688 mmHg 94%
    05:00 +10°C° 0 mm 0 mps 688 mmHg 88%
    06:00 +12°C° 0 mm 0 mps 689 mmHg 83%
    07:00 +14°C° 0 mm 0 mps 689 mmHg 77%
    08:00 +16°C° 0 mm 0 mps 690 mmHg 68%
    09:00 +18°C° 0 mm 0 mps 690 mmHg 59%
    10:00 +22°C° 0 mm 1 mps 691 mmHg 51%
    11:00 +23°C° 0.2 mm 1 mps 691 mmHg 50%
    12:00 +23°C° 0.2 mm 2 mps 690 mmHg 49%
    13:00 +23°C° 0.2 mm 2 mps 690 mmHg 49%
    14:00 +21°C° 0.2 mm 2 mps 690 mmHg 50%
    15:00 +21°C° 0.2 mm 2 mps 690 mmHg 51%
    16:00 +21°C° 0.2 mm 2 mps 690 mmHg 52%
    17:00 +19°C° 0 mm 2 mps 689 mmHg 60%
    18:00 +17°C° 0 mm 2 mps 689 mmHg 67%
    19:00 +16°C° 0 mm 1 mps 689 mmHg 75%
    20:00 +14°C° 0 mm 1 mps 689 mmHg 80%
    21:00 +13°C° 0 mm 1 mps 689 mmHg 85%
    22:00 +11°C° 0 mm 1 mps 689 mmHg 90%
    23:00 +11°C° 0 mm 1 mps 689 mmHg 90%

    26 May, Sunday

    Time Temperature Precipitation Wind Pressure Humidity
    00:00 +10°C° 0 mm 1 mps 689 mmHg 91%
    01:00 +10°C° 0 mm 1 mps 689 mmHg 92%
    02:00 +10°C° 0 mm 1 mps 689 mmHg 92%
    03:00 +10°C° 0 mm 1 mps 689 mmHg 93%
    04:00 +9°C° 0 mm 1 mps 689 mmHg 93%
    05:00 +11°C° 0.1 mm 1 mps 689 mmHg 88%
    06:00 +12°C° 0.1 mm 0 mps 689 mmHg 82%
    07:00 +14°C° 0.1 mm 0 mps 690 mmHg 76%
    08:00 +16°C° 0 mm 0 mps 690 mmHg 69%
    09:00 +17°C° 0 mm 0 mps 691 mmHg 62%
    10:00 +21°C° 0 mm 1 mps 691 mmHg 55%
    11:00 +22°C° 0.1 mm 1 mps 691 mmHg 54%
    12:00 +22°C° 0.1 mm 1 mps 691 mmHg 53%
    13:00 +23°C° 0.1 mm 2 mps 691 mmHg 51%
    14:00 +21°C° 0.4 mm 2 mps 690 mmHg 56%
    15:00 +21°C° 0.4 mm 2 mps 690 mmHg 61%
    16:00 +20°C° 0.4 mm 2 mps 690 mmHg 65%
    17:00 +19°C° 0.3 mm 2 mps 690 mmHg 72%
    18:00 +18°C° 0.3 mm 1 mps 689 mmHg 79%
    19:00 +16°C° 0.3 mm 1 mps 689 mmHg 86%
    20:00 +15°C° 0.2 mm 1 mps 689 mmHg 89%
    21:00 +13°C° 0.2 mm 1 mps 690 mmHg 93%
    22:00 +12°C° 0.2 mm 1 mps 690 mmHg 96%
    23:00 +12°C° 0 mm 1 mps 689 mmHg 96%

    27 May, Monday

    Time Temperature Precipitation Wind Pressure Humidity
    00:00 +12°C° 0 mm 1 mps 689 mmHg 97%
    01:00 +11°C° 0 mm 1 mps 689 mmHg 97%
    02:00 +11°C° 0 mm 1 mps 689 mmHg 97%
    03:00 +11°C° 0 mm 1 mps 689 mmHg 97%
    04:00 +11°C° 0 mm 1 mps 689 mmHg 97%
    05:00 +12°C° 0 mm 1 mps 689 mmHg 93%
    06:00 +12°C° 0 mm 0 mps 689 mmHg 89%
    07:00 +14°C° 0 mm 0 mps 689 mmHg 85%
    08:00 +16°C° 0 mm 1 mps 690 mmHg 77%
    09:00 +19°C° 0 mm 1 mps 690 mmHg 69%
    10:00 +21°C° 0 mm 1 mps 690 mmHg 61%
    11:00 +22°C° 0 mm 1 mps 690 mmHg 56%
    12:00 +23°C° 0 mm 2 mps 690 mmHg 51%
    13:00 +24°C° 0 mm 2 mps 690 mmHg 47%
    14:00 +23°C° 0 mm 2 mps 689 mmHg 48%
    15:00 +23°C° 0 mm 2 mps 689 mmHg 50%
    16:00 +23°C° 0 mm 2 mps 689 mmHg 51%
    17:00 +20°C° 0 mm 2 mps 688 mmHg 60%
    18:00 +18°C° 0 mm 2 mps 688 mmHg 69%
    19:00 +18°C° 0 mm 1 mps 688 mmHg 79%
    20:00 +15°C° 0 mm 1 mps 688 mmHg 84%
    21:00 +14°C° 0 mm 1 mps 688 mmHg 89%
    22:00 +13°C° 0 mm 1 mps 687 mmHg 95%
    23:00 +12°C° 0 mm 1 mps 687 mmHg 94%
    Show more